DateTimeUTC,F1_A11,F1_S11,BsB_S11,BsG_S11,BsR_S11,BbsB_S11,BbsG_S11,BbsR_S11,BaB_A11,BaG_A11,BaR_A11,Tu_S11,T_S11,Uu_S11,U_S11,P_S11,T1_A11
2021-05-03T08:00:00Z,00000200,21000000,,,,,,,0000.13,-000.05,0000.07,17.6,24.7,,00.0,0681.2,31.1
2021-05-03T08:01:00Z,00000200,21000000,,,,,,,0000.18,0000.23,-000.13,17.6,24.7,,00.0,0681.2,31.1
2021-05-03T08:02:00Z,00000200,21000000,,,,,,,0000.17,0000.08,0000.42,17.6,24.7,,00.0,0681.2,31.1
2021-05-03T08:03:00Z,00000200,61000000,,,,,,,0000.84,0000.65,0000.15,17.6,24.8,,00.0,0681.2,31.1
2021-05-03T08:04:00Z,00000200,41000000,0002.92,0001.91,0001.56,0000.10,0000.50,0000.44,0001.00,0000.62,0001.15,17.7,24.6,,00.0,0682.1,31.1
2021-05-03T08:05:00Z,00000200,01000000,0002.93,0001.72,0001.16,0000.32,0000.54,0000.19,0000.62,0000.93,0000.38,17.8,24.6,,00.0,0682.2,31.1
2021-05-03T08:06:00Z,00000200,01000000,0003.26,0001.99,0001.32,0000.59,0000.48,0000.25,0001.21,0001.21,0000.61,17.8,24.6,,00.0,0682.2,31.1
2021-05-03T08:07:00Z,00000200,01000000,0003.40,0002.01,0001.47,0000.14,0000.44,0000.42,0001.22,0000.92,0000.90,17.8,24.5,,00.0,0682.2,31.1
2021-05-03T08:08:00Z,00000200,01000000,0003.76,0001.93,0001.32,0000.45,0000.26,0000.39,0001.11,0001.01,0000.65,17.8,24.6,,00.0,0682.2,31.1
2021-05-03T08:09:00Z,00000200,01000000,0003.99,0002.17,0001.37,0000.63,0000.39,0000.11,0001.56,0001.17,0000.91,17.8,24.5,,00.0,0682.2,31.1
2021-05-03T08:10:00Z,00000200,01000000,0003.42,0002.23,0001.33,0000.43,0000.48,0000.42,0001.23,0001.41,0000.77,17.8,24.5,,00.0,0682.2,31.1
2021-05-03T08:11:00Z,00000200,01000000,0003.19,0002.00,0001.38,0000.61,0000.69,0000.40,0001.47,0000.84,0001.13,17.8,24.5,,00.0,0682.2,31.1
2021-05-03T08:12:00Z,00000200,01000000,0004.11,0002.46,0001.20,0000.46,0000.60,0000.35,0001.28,0001.19,0000.65,17.9,24.6,,00.0,0682.2,31.1
2021-05-03T08:13:00Z,00000200,01000000,0003.60,0002.34,0001.33,0000.72,0000.47,0000.18,0001.01,0001.16,0000.72,17.9,24.6,,00.0,0682.1,31.1
2021-05-03T08:14:00Z,00000200,01000000,0002.75,0001.94,0000.88,0000.13,0000.44,0000.20,0000.29,0000.14,0000.09,17.9,24.6,,00.0,0682.1,31.1
2021-05-03T08:15:00Z,00000200,01000000,0003.19,0001.97,0001.17,0000.80,0000.33,0000.46,0000.77,0001.06,0000.39,17.9,24.6,,00.0,0682.1,31.1
2021-05-03T08:16:00Z,00000200,01000000,0003.22,0001.76,0001.01,0000.63,0000.32,0000.39,0001.43,0000.95,0000.95,17.9,24.6,,00.0,0682.1,31.1
2021-05-03T08:17:00Z,00000200,01000000,0003.71,0002.10,0001.48,0000.08,0000.44,0000.57,0001.29,0001.14,0001.06,17.9,24.6,,00.0,0682.1,31.1
2021-05-03T08:18:00Z,00000200,01000000,0004.37,0002.29,0001.53,0000.60,0000.42,0000.40,0001.94,0001.50,0001.00,17.9,24.6,,00.0,0682.1,31.1
2021-05-03T08:19:00Z,00000200,01000000,0003.86,0002.51,0001.47,0000.26,0000.50,0000.29,0001.06,0001.29,0000.87,17.9,24.6,,00.0,0682.1,31.1
2021-05-03T08:20:00Z,00000200,01000000,0004.41,0002.65,0001.63,0000.58,0000.61,0000.03,0002.07,0001.70,0001.29,17.9,24.6,,00.0,0682.1,31.1
2021-05-03T08:21:00Z,00000200,01000000,0004.21,0002.45,0001.37,0000.54,0000.62,0000.50,0001.46,0001.35,0001.12,17.9,24.6,,00.0,0682.2,31.1
2021-05-03T08:22:00Z,00000200,01000000,0003.72,0002.30,0001.13,0000.51,0000.53,0000.14,0001.02,0000.85,0000.41,17.9,24.6,,00.0,0682.2,31.1
2021-05-03T08:23:00Z,00000200,01000000,0004.54,0002.27,0001.58,0000.43,0000.72,0000.36,0001.49,0001.36,0001.08,17.9,24.6,,00.0,0682.1,31.1
2021-05-03T08:24:00Z,00000200,01000000,0004.58,0002.40,0001.59,-000.07,0000.59,0000.52,0001.30,0001.19,0000.83,17.9,24.6,,00.0,0682.1,31.1
2021-05-03T08:25:00Z,00000200,01000000,0004.27,0002.44,0001.72,0000.59,0000.32,0000.44,0001.31,0001.25,0000.66,18.0,24.6,,00.0,0682.1,31.1
2021-05-03T08:26:00Z,00000200,01000000,0004.84,0002.52,0001.79,0001.17,0000.43,0000.25,0001.63,0001.28,0001.22,18.0,24.6,,00.0,0682.1,31.1
2021-05-03T08:27:00Z,00000200,01000000,0004.98,0002.68,0001.37,0000.22,0000.67,0000.49,0001.85,0001.65,0001.20,18.0,24.6,,00.0,0682.1,31.1
2021-05-03T08:28:00Z,00000200,01000000,0004.24,0002.95,0001.89,0000.60,0000.69,0000.47,0001.63,0001.79,0001.33,18.0,24.6,,00.0,0682.1,31.1
2021-05-03T08:29:00Z,00000200,01000000,0004.86,0002.97,0001.70,0000.48,0000.50,0000.45,0001.39,0001.18,0000.45,18.0,24.6,,00.0,0682.1,31.1
2021-05-03T08:30:00Z,00000200,01000000,0004.56,0002.93,0001.54,0000.75,0000.63,0000.37,0001.89,0001.50,0001.19,18.0,24.6,,00.0,0682.1,31.1
2021-05-03T08:31:00Z,00000200,01000000,0004.49,0002.12,0001.33,0000.60,0000.48,0000.22,0000.53,0000.34,0000.29,18.0,24.6,,00.0,0682.1,31.1
2021-05-03T08:32:00Z,00000200,01000000,0003.61,0001.91,0001.51,0000.59,0000.52,0000.45,0000.91,0000.80,0000.92,18.0,24.6,,00.0,0682.1,31.1
2021-05-03T08:33:00Z,00000200,01000000,0003.81,0002.06,0001.53,0000.34,0000.50,0000.27,0000.67,0001.01,0000.41,18.0,24.6,,00.0,0682.1,31.1
2021-05-03T08:34:00Z,00000200,01000000,0003.53,0002.14,0001.18,0000.42,0000.58,0000.45,0001.11,0000.54,0000.67,18.0,24.6,,00.0,0682.1,31.1
2021-05-03T08:35:00Z,00000200,01000000,0003.20,0002.37,0001.42,0000.58,0000.48,0000.24,0001.19,0001.31,0000.69,18.0,24.6,,00.0,0682.1,31.1
2021-05-03T08:36:00Z,00000200,01000000,0003.21,0001.64,0001.28,0000.45,0000.35,0000.22,0000.97,0000.84,0000.53,18.0,24.7,,00.0,0682.1,31.1
2021-05-03T08:37:00Z,00000200,01000000,0002.61,0001.77,0001.29,0000.44,0000.21,0000.01,0001.44,0001.46,0000.98,18.0,24.7,,00.0,0682.1,31.1
2021-05-03T08:38:00Z,00000200,01000000,0003.14,0001.90,0001.42,0000.53,0000.52,0000.20,0000.87,0000.35,0000.71,18.0,24.7,,00.0,0682.1,31.1
2021-05-03T08:39:00Z,00000200,01000000,0002.93,0002.04,0001.40,0000.66,0000.53,0000.32,0001.02,0001.04,0000.50,18.0,24.7,,00.0,0682.1,31.1
2021-05-03T08:40:00Z,00000200,01000000,0003.08,0002.10,0001.32,0000.92,0000.63,0000.78,0000.84,0001.21,0000.68,18.1,24.7,,00.0,0682.1,31.1
2021-05-03T08:41:00Z,00000200,01000000,0002.92,0002.06,0001.02,0000.03,0000.32,0000.18,0001.09,0000.87,0000.83,18.1,24.7,,00.0,0682.0,31.1
2021-05-03T08:42:00Z,00000200,01000000,0003.08,0002.18,0001.28,0000.23,0000.28,0000.20,0001.11,0000.83,0000.72,18.1,24.7,,00.0,0682.0,31.1
2021-05-03T08:43:00Z,00000200,01000000,0003.54,0002.03,0001.29,0000.93,0000.42,0000.40,0001.32,0000.87,0000.65,18.1,24.7,,00.0,0682.0,31.1
2021-05-03T08:44:00Z,00000200,01000000,0003.50,0002.08,0001.31,0000.30,0000.31,0000.35,0000.99,0001.56,0001.01,18.1,24.7,,00.0,0682.0,31.1
2021-05-03T08:45:00Z,00000200,01000000,0003.17,0001.91,0001.13,0000.81,0000.39,0000.76,0001.27,0000.55,0000.88,18.1,24.7,,00.0,0682.0,31.1
2021-05-03T08:46:00Z,00000200,01000000,0003.87,0002.29,0001.33,0000.85,0000.65,0000.46,0001.72,0001.90,0000.82,18.1,24.7,,00.0,0682.0,31.1
2021-05-03T08:47:00Z,00000200,01000000,0003.68,0002.18,0001.35,0000.57,0000.71,0000.29,0001.49,0001.38,0000.89,18.1,24.7,,00.0,0682.0,31.1
2021-05-03T08:48:00Z,00000200,01000000,0003.46,0002.47,0001.15,0000.57,0000.42,0000.27,0001.55,0001.03,0000.82,18.1,24.7,,00.0,0682.0,31.1
2021-05-03T08:49:00Z,00000200,01000000,0004.76,0002.60,0001.46,0000.42,0000.51,0000.44,0001.42,0001.25,0001.02,18.1,24.7,,00.0,0682.0,31.1
2021-05-03T08:50:00Z,00000200,01000000,0004.53,0002.63,0001.54,0000.53,0000.53,0000.43,0001.85,0001.71,0001.26,18.1,24.7,,00.0,0681.9,31.1
2021-05-03T08:51:00Z,00000200,01000000,0004.10,0002.43,0001.55,0000.50,0000.55,0000.52,0001.79,0001.56,0001.21,18.1,24.7,,00.0,0681.9,31.1
2021-05-03T08:52:00Z,00000200,01000000,0003.91,0002.83,0001.64,0000.37,0000.61,0000.27,0000.59,0000.90,0000.49,18.1,24.7,,00.0,0681.9,31.1
2021-05-03T08:53:00Z,00000200,01000000,0004.78,0002.55,0001.51,0000.58,0000.55,0000.21,0002.16,0002.03,0001.36,18.1,24.8,,00.0,0681.9,31.1
2021-05-03T08:54:00Z,00000200,01000000,0004.97,0002.75,0001.69,0000.70,0000.74,0000.32,0001.66,0001.18,0000.93,18.1,24.8,,00.0,0681.9,31.1
2021-05-03T08:55:00Z,00000200,01000000,0004.28,0002.47,0001.53,0000.24,0000.39,0000.19,0001.06,0000.92,0001.00,18.1,24.7,,00.0,0681.9,31.1
2021-05-03T08:56:00Z,00000200,01000000,0004.53,0002.76,0001.82,0000.55,0000.53,0000.53,0001.56,0001.58,0000.71,18.2,24.7,,00.0,0681.9,31.1
2021-05-03T08:57:00Z,00000200,41000000,,,,,,,0000.27,0000.27,0000.15,18.2,24.8,,00.0,0682.0,31.1
2021-05-03T08:58:00Z,00000200,61000000,,,,,,,0000.59,0000.16,0000.42,18.0,24.9,,00.0,0680.9,31.1
2021-05-03T08:59:00Z,00000200,21000000,,,,,,,0000.24,0000.19,-000.04,17.9,25.0,,00.0,0680.9,31.1
